Volver al catálogo

RASSVET-3 1

ActivoCienciaPO
NORAD 68360·PAYLOAD·🇷🇺 Russia

Lanzado Mar 23, 2026 desde Plesetsk Cosmodrome

Loading…

Próximos Pases (próximas 24 horas)

TLE

ActualizadoSource: Space-Track

Época: Sep 14, 2026, 02:41 UTC

1 68360U 26061A   26257.11241720  .00002813  00000-0  13531-3 0  9998
2 68360  82.2874 281.3896 0002343  73.7194 286.4297 15.18415750 27066

Sigue RASSVET-3 1 en tiempo real con AllMySat

Download on the App Store